Weather Roundup
Issued by NWS Chicago, IL

Home | Current Version | Previous Version | Text Only | Print | Product List | Glossary On
Versions: 1 2 3 4 5 6 7 8 9 10 11 12 13 14 15 16 17 18 19 20 21 22 23 24 25 26 27 28 29 30 31 32 33 34 35 36 37 38 39 40 41 42 43 44 45 46 47 48 49 50
000
NZUS59 KLOT 291509
HRRLOT

CHICAGO AREA WEATHER ROUNDUP
NATIONAL WEATHER SERVICE CHICAGO/ROMEOVILLE IL
1000 AM CDT MON MAY 29 2017

NOTE: "FAIR" INDICATES FEW OR NO CLOUDS BELOW 12,000 FEET WITH NO
SIGNIFICANT WEATHER AND/OR OBSTRUCTIONS TO VISIBILITY.

* THESE STATIONS ARE NOT UNDER NWS QUALITY CONTROL. THEY ALSO MAY NOT
  REPORT WEATHER SUCH AS PRECIPITATION OR FOG.

ILZ005-006-012>014-019>023-291600-
NORTHEAST ILLINOIS

CITY           SKY/WX    TMP DP  RH WIND       PRES   REMARKS
OHARE          MOSUNNY   72  45  37 W15G22    29.81R
MIDWAY         MOSUNNY   73  48  41 W17G24    29.82R
AURORA         MOSUNNY   71  49  45 W18       29.84R
LANSING*       SUNNY     73  53  50 SW13      29.83S
JOLIET*        SUNNY     73  50  44 W9        29.85R
WAUKEGAN       SUNNY     70  46  42 SW10G20   29.77S
DUPAGE AIRPORT MOSUNNY   68  49  50 W16       29.82R
WHEELING       MOSUNNY   71  46  40 W15G21    29.81R
KANKAKEE*      SUNNY     74  51  43 W12       29.86F
MORRIS*        SUNNY     72  49  43 W16       29.84S
LEWIS AIRPORT* SUNNY     72  53  51 W16       29.84S
NORTHERLY ISL    N/A     72  42  34 SW8         N/A
$$

WIZ051-052-058>065-066-070>072-291600-
SOUTHEAST WISCONSIN

CITY           SKY/WX    TMP DP  RH WIND       PRES   REMARKS
MILWAUKEE      MOSUNNY   70  45  40 W17G24    29.74F
KENOSHA*       SUNNY     70  46  42 W23G32    29.77S
RACINE*        SUNNY     69  45  41 W13G24    29.77F
WAUKESHA       SUNNY     64  46  52 W17G25    29.76F
WEST BEND      SUNNY     63  43  48 W21G28    29.72F
$$

INZ001>003-010>013-019-020-291600-
NORTHWEST INDIANA

CITY           SKY/WX    TMP DP  RH WIND       PRES   REMARKS
GARY*          MOSUNNY   75  41  29 W14       29.83R
MICHIGAN CITY* NOT AVBL
RENSSELAER*    NOT AVBL
VALPARAISO     SUNNY     74  52  46 SW10      29.84S
$$

LMZ740>746-291600-
SOUTHERN LAKE MICHIGAN

STATION/POSITION TIME  SKY/WX   TEMP WIND        PRES    VSBY
                                AIR  DIR/SP/G
                 (UTC)          (F)  (DEG/KT/KT) (MB)    (MI)
HARRISON CRIB    1440            71  260/ 16/ 19   N/A
BURNHAM HARBOR   1500            72  260/ 16       N/A
CALUMET HARBOR   1442            72  230/  4/ 11 1009.3R
BURNS HARBOR     1440            67  250/ 10/ 13 1010.5R
MICHIGAN CITY    1440            66  230/ 15/ 16   N/A
$$

ABBREVIATIONS USED IN REMARKS
   TC - TEMPERATURE IN CELSIUS
  WCI - WIND CHILL INDEX
   HX - HEAT INDEX
  VSB - VISIBILITY
$$




USA.gov is the U.S. government's official web portal to all federal, state and local government web resources and services.